sat.trackr.live / text

‹ back to catalog

STARLINK-34378

NORAD 64299 · 2025-123J

PAYLOAD ACTIVE UNKNOWN

§ Identity

Operator
Country
US
Launch date
2025-06-08
Launch site
AFWTR
Launch vehicle
Mass (kg)
RCS (m²)

Purposes: comms

External: N2YO · Heavens-Above · Gunter

§ Orbital elements

Epoch: 2026-09-20T14:31:11.321760Z

Period
94.14 min
Inclination
70.0000°
Eccentricity
0.0003513
Mean motion
15.29599458 rev/d
Perigee alt
474.6 km
Apogee alt
479.4 km
Semi-major
6,855.1 km
B*
4.6002e-4
RAAN
60.6724°
Arg perigee
270.7414°
Mean anomaly
89.3358°
Rev number
7,087

§ Raw data

STARLINK-343781 64299U 25123J   26263.60499215  .00013127  00000+0  46002-3 0  99962 64299  70.0000  60.6724 0003513 270.7414  89.3358 15.29599458 70876

JSON: /api/v1/satellites/64299 · /tle

For live sub-satellite position, see the globe view (requires WebGL).

§ Visibility from observer

Set your observer location to see the next 7 days of passes ≥ 10°. The values pass through the URL so the page stays shareable.

No JS? Fill the form by hand. The geolocation button needs JavaScript.